Regional Weather Roundup
Issued by NWS

Home | Current Version | Previous Version | Graphics & Text | Print | Product List | Glossary On
Versions: 1 2 3 4 5 6 7 8 9 10 11 12 13 14 15 16 17 18 19 20 21 22 23 24 25 26 27 28 29 30 31 32 33 34 35 36 37 38 39 40 41 42 43 44 45 46 47 48 49 50
000
ASUS44 KMEG 182000
RWRTN
TENNESSEE HOURLY STATE WEATHER ROUNDUP
NATIONAL WEATHER SERVICE MEMPHIS TN
200 PM CST SUN FEB 18 2018

TNZ002-004-019-021-049-052-054-088>092-182100-
WEST TENNESSEE

CITY           SKY/WX    TMP DP  RH WIND       PRES   REMARKS
MEMPHIS INTL   PTSUNNY   59  40  49 S10       30.13F
NWS MEMPHIS      N/A     60 N/A N/A MISG        N/A
JACKSON        FAIR      58  34  40 S9G17     30.14F
DYERSBURG      FAIR      55  35  47 SE14      30.13F
$$

TNZ008-025-027-028-033-062-065-066-182100-
NORTH MIDDLE TENNESSEE

CITY           SKY/WX    TMP DP  RH WIND       PRES   REMARKS
NASHVILLE      PTSUNNY   58  30  34 SE8       30.20F
CLARKSVILLE    FAIR      56  29  35 SE13      30.18F
SMYRNA         FAIR      59  31  34 E6        30.20F
CROSSVILLE     FAIR      56  26  31 SE9       30.21F
$$

TNZ061-075-076-078-094-096-097-182100-
SOUTH MIDDLE TENNESSEE

CITY           SKY/WX    TMP DP  RH WIND       PRES   REMARKS
WINCHESTER     SUNNY     61  30  31 SE8       30.19F
$$

TNZ017-018-042-046-047-182100-
NORTHEAST TENNESSEE

CITY           SKY/WX    TMP DP  RH WIND       PRES   REMARKS
TRI CITIES     FAIR      57  35  43 E6        30.24F
$$

TNZ012-013-036-069-073-074-182100-
CENTRAL EAST TENNESSEE

CITY           SKY/WX    TMP DP  RH WIND       PRES   REMARKS
KNOXVILLE      FAIR      58  37  45 VRB6      30.21F
OAK RIDGE      FAIR      58  36  43 CALM      30.23F
$$

TNZ083-085-099-182100-
SOUTHEAST TENNESSEE

CITY           SKY/WX    TMP DP  RH WIND       PRES   REMARKS
CHATTANOOGA    PTSUNNY   61  36  39 VRB3      30.21F
$$

SKY/WX REPORTED AS FAIR MEANS FEW OR NO CLOUDS BELOW
12 THOUSAND FEET.





USA.gov is the U.S. government's official web portal to all federal, state and local government web resources and services.